Location: Unspecified
(0.0000°N, 0.0000°E)
Time: 05:55:22
(UTC+01:00)

Ariane H10 - Visible Passes

Search period start: 10 December 2016 00:00
Search period end: 20 December 2016 00:00
Orbit: 248 x 24033 km, 3.8° (Epoch: 08 December)

Date Brightness Start Highest point End Pass type
(mag) Time Alt. Az. Time Alt. Az. Time Alt. Az.
10 Dec 8.1 03:07:50 10° W 05:32:48 44° W 09:02:49 10° E visible
10 Dec 7.9 23:34:54 10° W 00:26:38 87° N 05:41:53 10° E visible
11 Dec 5.9 20:17:32 10° W 20:26:19 79° N 01:44:41 10° E visible
12 Dec 7.5 04:09:43 10° W 06:19:51 31° W 09:50:38 10° E visible
13 Dec 8.2 00:24:27 10° W 02:58:21 87° W 06:32:01 10° E visible
13 Dec 6.6 21:04:49 10° W 21:17:29 81° N 02:52:43 10° E visible
14 Dec 6.8 05:27:26 10° W 07:05:46 18° W 10:37:41 10° E visible
15 Dec 8.4 01:14:40 10° W 03:49:55 72° W 07:20:35 10° E visible
15 Dec 7.3 21:51:52 10° W 22:10:42 84° N 03:50:12 10° E visible
16 Dec 4.5 18:36:22 10° W 18:40:56 72° N 19:13:01 10° E visible
17 Dec 8.7 02:06:10 10° W 04:38:12 58° W 08:07:57 10° E visible
17 Dec 7.8 22:38:49 10° W 23:08:23 86° N 04:42:48 10° E visible
18 Dec 5.3 19:22:05 10° W 19:28:24 75° N 23:43:39 10° E visible
19 Dec 8.2 03:00:10 10° W 05:24:36 44° W 08:54:20 10° E visible
